| time (UTC) | temp C | wind direction | speed KPH | gust KPH | rain 1hr cm | rain 24hr cm | rain mn cm | humidity % | barometer mb |
| 20260505211917 | 27 | 12 | 3.2 | 4.8 | 0.00 | 0.15 | 0.15 | 37 | 1006.8 |
| 20260505211415 | 27 | 356 | 8.0 | 9.7 | 0.00 | 0.15 | 0.15 | 37 | 1006.9 |
| 20260505210910 | 27 | 48 | 14.5 | 27.4 | 0.00 | 0.15 | 0.15 | 36 | 1006.8 |
| 20260505210408 | 26 | 345 | 4.8 | 8.0 | 0.00 | 0.15 | 0.15 | 38 | 1006.8 |
| 20260505205905 | 27 | 104 | 9.7 | 12.9 | 0.00 | 0.15 | 0.15 | 37 | 1006.7 |
| 20260505205403 | 27 | 23 | 1.6 | 3.2 | 0.00 | 0.15 | 0.15 | 38 | 1006.9 |
| 20260505204900 | 27 | 66 | 3.2 | 3.2 | 0.00 | 0.15 | 0.15 | 37 | 1006.8 |
| 20260505204357 | 27 | 112 | 8.0 | 14.5 | 0.00 | 0.15 | 0.15 | 36 | 1006.7 |
| 20260505203855 | 27 | 49 | 1.6 | 1.6 | 0.00 | 0.15 | 0.15 | 36 | 1006.7 |
| 20260505203350 | 27 | 228 | 1.6 | 1.6 | 0.00 | 0.15 | 0.15 | 36 | 1006.8 |
| 20260505202847 | 27 | 59 | 4.8 | 4.8 | 0.00 | 0.15 | 0.15 | 37 | 1006.6 |
| 20260505202343 | 28 | 332 | 3.2 | 4.8 | 0.00 | 0.15 | 0.15 | 35 | 1006.9 |
| 20260505201840 | 28 | 100 | 3.2 | 4.8 | 0.00 | 0.15 | 0.15 | 36 | 1006.9 |
| 20260505201338 | 27 | 157 | 4.8 | 8.0 | 0.00 | 0.15 | 0.15 | 35 | 1006.8 |
| 20260505200836 | 27 | 140 | 8.0 | 9.7 | 0.00 | 0.15 | 0.15 | 37 | 1006.5 |
| 20260505200332 | 27 | 225 | 6.4 | 11.3 | 0.00 | 0.15 | 0.15 | 36 | 1007.0 |
| 20260505195828 | 27 | 65 | 1.6 | 3.2 | 0.00 | 0.15 | 0.15 | 37 | 1006.8 |
| 20260505195325 | 27 | 165 | 8.0 | 11.3 | 0.00 | 0.15 | 0.15 | 36 | 1007.0 |
| 20260505194822 | 27 | 241 | 4.8 | 8.0 | 0.00 | 0.15 | 0.15 | 37 | 1006.9 |
| 20260505194320 | 27 | 187 | 6.4 | 11.3 | 0.00 | 0.15 | 0.15 | 36 | 1006.8 |
| 20260505193815 | 27 | 204 | 4.8 | 8.0 | 0.00 | 0.15 | 0.15 | 36 | 1007.0 |
| 20260505193313 | 27 | 232 | 3.2 | 12.9 | 0.00 | 0.15 | 0.15 | 36 | 1007.1 |
| 20260505192810 | 27 | 182 | 6.4 | 9.7 | 0.00 | 0.15 | 0.15 | 35 | 1007.1 |
| 20260505192310 | 27 | 302 | 4.8 | 4.8 | 0.00 | 0.15 | 0.15 | 35 | 1007.1 |
| 20260505191806 | 27 | 126 | 4.8 | 11.3 | 0.00 | 0.15 | 0.15 | 36 | 1007.3 |
| 20260505191304 | 27 | 281 | 1.6 | 1.6 | 0.00 | 0.15 | 0.15 | 37 | 1007.3 |
| 20260505190800 | 27 | 350 | 4.8 | 4.8 | 0.00 | 0.15 | 0.15 | 37 | 1007.5 |
| 20260505190256 | 27 | 230 | 8.0 | 11.3 | 0.00 | 0.15 | 0.15 | 37 | 1007.8 |
| 20260505185752 | 28 | 241 | 6.4 | 9.7 | 0.00 | 0.15 | 0.15 | 38 | 1007.6 |
| 20260505185248 | 27 | 258 | 1.6 | 1.6 | 0.00 | 0.15 | 0.15 | 38 | 1007.6 |
| 20260505184744 | 27 | 167 | 4.8 | 8.0 | 0.00 | 0.15 | 0.15 | 38 | 1007.8 |
| 20260505184242 | 27 | 225 | 3.2 | 4.8 | 0.00 | 0.15 | 0.15 | 38 | 1007.7 |
| 20260505183739 | 27 | 62 | 4.8 | 8.0 | 0.00 | 0.15 | 0.15 | 37 | 1008.0 |
| 20260505183236 | 27 | 211 | 14.5 | 16.1 | 0.00 | 0.15 | 0.15 | 36 | 1008.1 |
| 20260505182732 | 27 | 43 | 1.6 | 3.2 | 0.00 | 0.15 | 0.15 | 40 | 1007.9 |
| 20260505182229 | 27 | 193 | 9.7 | 12.9 | 0.00 | 0.15 | 0.15 | 38 | 1007.7 |
| 20260505181725 | 27 | 222 | 1.6 | 1.6 | 0.00 | 0.15 | 0.15 | 39 | 1008.1 |
| 20260505181223 | 27 | 232 | 6.4 | 9.7 | 0.00 | 0.15 | 0.15 | 37 | 1008.1 |
| 20260505180720 | 27 | 1 | 4.8 | 9.7 | 0.00 | 0.15 | 0.15 | 43 | 1008.2 |
| 20260505180217 | 27 | 278 | 4.8 | 8.0 | 0.00 | 0.15 | 0.15 | 44 | 1008.3 |
| 20260505175713 | 27 | 271 | 8.0 | 11.3 | 0.00 | 0.15 | 0.15 | 41 | 1008.0 |
| 20260505175209 | 27 | 27 | 8.0 | 11.3 | 0.00 | 0.15 | 0.15 | 39 | 1008.1 |
| 20260505174706 | 27 | 284 | 11.3 | 17.7 | 0.00 | 0.15 | 0.15 | 40 | 1008.3 |
| 20260505174203 | 26 | 12 | 4.8 | 9.7 | 0.00 | 0.15 | 0.15 | 40 | 1008.4 |
| 20260505173659 | 26 | 35 | 3.2 | 3.2 | 0.00 | 0.15 | 0.15 | 42 | 1008.3 |
| 20260505173156 | 26 | 273 | 3.2 | 8.0 | 0.00 | 0.15 | 0.15 | 42 | 1008.4 |
| 20260505172653 | 26 | 21 | 1.6 | 1.6 | 0.00 | 0.15 | 0.15 | 44 | 1008.5 |
| 20260505172150 | 26 | 356 | 8.0 | 11.3 | 0.00 | 0.15 | 0.15 | 41 | 1008.3 |
| 20260505171649 | 26 | 49 | 1.6 | 1.6 | 0.00 | 0.15 | 0.15 | 41 | 1008.7 |
| 20260505171147 | 26 | 42 | 4.8 | 8.0 | 0.00 | 0.15 | 0.15 | 41 | 1008.3 |
| 20260505170644 | 26 | 69 | 8.0 | 9.7 | 0.00 | 0.15 | 0.15 | 41 | 1008.7 |
| 20260505170141 | 26 | 219 | 9.7 | 14.5 | 0.00 | 0.15 | 0.15 | 41 | 1008.7 |
| 20260505165641 | 26 | 219 | 3.2 | 8.0 | 0.00 | 0.15 | 0.15 | 43 | 1008.9 |
| 20260505165137 | 26 | 58 | 3.2 | 3.2 | 0.00 | 0.15 | 0.15 | 44 | 1008.9 |
| 20260505164632 | 26 | 286 | 6.4 | 8.0 | 0.00 | 0.15 | 0.15 | 45 | 1008.9 |
| 20260505164130 | 26 | 293 | 3.2 | 3.2 | 0.00 | 0.15 | 0.15 | 47 | 1008.9 |
| 20260505163628 | 26 | 270 | 3.2 | 4.8 | 0.00 | 0.15 | 0.15 | 48 | 1009.2 |
| 20260505163126 | 26 | 256 | 6.4 | 9.7 | 0.00 | 0.15 | 0.15 | 45 | 1009.0 |
| 20260505162623 | 25 | 211 | 4.8 | 4.8 | 0.00 | 0.15 | 0.15 | 47 | 1009.1 |
| 20260505162121 | 25 | 282 | 11.3 | 12.9 | 0.00 | 0.15 | 0.15 | 47 | 1009.2 |
| 20260505161618 | 26 | 172 | 4.8 | 8.0 | 0.00 | 0.15 | 0.15 | 47 | 1009.3 |
| 20260505161115 | 25 | 357 | 6.4 | 8.0 | 0.00 | 0.15 | 0.15 | 50 | 1009.2 |
| 20260505160613 | 25 | 209 | 9.7 | 14.5 | 0.00 | 0.15 | 0.15 | 47 | 1009.5 |
| 20260505160110 | 25 | 355 | 6.4 | 8.0 | 0.00 | 0.15 | 0.15 | 51 | 1009.3 |
| 20260505153049 | 25 | 216 | 4.8 | 4.8 | 0.00 | 0.15 | 0.15 | 52 | 1009.7 |
| 20260505152546 | 24 | 194 | 8.0 | 11.3 | 0.00 | 0.15 | 0.15 | 49 | 1009.7 |
| 20260505152042 | 24 | 197 | 4.8 | 4.8 | 0.00 | 0.15 | 0.15 | 50 | 1009.9 |
| 20260505151537 | 23 | 110 | 0.0 | 0.0 | 0.00 | 0.15 | 0.15 | 53 | 1009.7 |
| 20260505151035 | 23 | 265 | 4.8 | 4.8 | 0.00 | 0.15 | 0.15 | 53 | 1009.6 |
| 20260505150531 | 23 | 100 | 6.4 | 9.7 | 0.00 | 0.15 | 0.15 | 51 | 1010.0 |
| 20260505140456 | 21 | 64 | 3.2 | 3.2 | 0.00 | 0.15 | 0.15 | 62 | 1010.2 |
| 20260505124909 | 14 | 171 | 0.0 | 0.0 | 0.00 | 0.15 | 0.15 | 98 | 1010.9 |
| 20260505124406 | 13 | 183 | 0.0 | 0.0 | 0.00 | 0.15 | 0.15 | 99 | 1010.6 |
| 20260505123902 | 13 | 201 | 0.0 | 0.0 | 0.00 | 0.15 | 0.15 | 99 | 1010.5 |
| 20260505123359 | 13 | 208 | 0.0 | 0.0 | 0.00 | 0.15 | 0.15 | 99 | 1010.6 |
| 20260505122855 | 13 | 176 | 0.0 | 0.0 | 0.00 | 0.15 | 0.15 | 99 | 1010.4 |
| 20260505122352 | 12 | 177 | 0.0 | 1.6 | 0.00 | 0.15 | 0.15 | 99 | 1010.5 |
| 20260505121849 | 12 | 170 | 0.0 | 0.0 | 0.00 | 0.15 | 0.15 | 99 | 1010.3 |
| 20260505121346 | 12 | 172 | 0.0 | 0.0 | 0.00 | 0.15 | 0.15 | 99 | 1010.4 |
| 20260505120842 | 13 | 179 | 0.0 | 0.0 | 0.00 | 0.15 | 0.15 | 99 | 1010.4 |
| 20260505120338 | 13 | 183 | 0.0 | 0.0 | 0.00 | 0.15 | 0.15 | 99 | 1010.5 |
| 20260505115837 | 12 | 202 | 0.0 | 0.0 | 0.00 | 0.15 | 0.15 | 99 | 1010.4 |
| 20260505115334 | 11 | 204 | 0.0 | 0.0 | 0.00 | 0.15 | 0.15 | 99 | 1010.6 |
| 20260505114832 | 11 | 203 | 0.0 | 0.0 | 0.00 | 0.15 | 0.15 | 99 | 1010.4 |
| 20260505114328 | 11 | 203 | 0.0 | 0.0 | 0.00 | 0.15 | 0.15 | 99 | 1010.4 |
| 20260505113825 | 11 | 203 | 0.0 | 0.0 | 0.00 | 0.15 | 0.15 | 99 | 1010.4 |
| 20260505113321 | 10 | 204 | 0.0 | 0.0 | 0.00 | 0.15 | 0.15 | 99 | 1010.5 |
| 20260505112817 | 10 | 204 | 0.0 | 0.0 | 0.00 | 0.15 | 0.15 | 99 | 1010.6 |
| 20260505112315 | 10 | 203 | 0.0 | 0.0 | 0.00 | 0.15 | 0.15 | 99 | 1010.4 |
| 20260505111810 | 10 | 203 | 0.0 | 0.0 | 0.00 | 0.15 | 0.15 | 99 | 1010.4 |
| 20260505111306 | 10 | 204 | 0.0 | 0.0 | 0.00 | 0.15 | 0.15 | 99 | 1010.3 |
| 20260505110756 | 10 | 203 | 0.0 | 0.0 | 0.00 | 0.15 | 0.15 | 99 | 1010.0 |
| 20260505110255 | 9 | 203 | 0.0 | 0.0 | 0.00 | 0.15 | 0.15 | 99 | 1010.1 |
| 20260505101728 | 10 | 204 | 0.0 | 0.0 | 0.00 | 0.15 | 0.15 | 99 | 1009.9 |
| 20260505101224 | 10 | 204 | 0.0 | 0.0 | 0.00 | 0.15 | 0.15 | 99 | 1009.7 |
| 20260505100721 | 10 | 204 | 0.0 | 0.0 | 0.00 | 0.15 | 0.15 | 99 | 1009.7 |
| 20260505100218 | 10 | 205 | 0.0 | 0.0 | 0.00 | 0.15 | 0.15 | 99 | 1009.9 |
| 20260505095713 | 10 | 205 | 0.0 | 0.0 | 0.00 | 0.15 | 0.15 | 99 | 1009.8 |
| 20260505095212 | 10 | 204 | 0.0 | 0.0 | 0.00 | 0.15 | 0.15 | 99 | 1009.6 |
| 20260505094707 | 10 | 205 | 0.0 | 0.0 | 0.00 | 0.15 | 0.15 | 99 | 1009.8 |
| 20260505094203 | 10 | 204 | 0.0 | 0.0 | 0.00 | 0.15 | 0.15 | 99 | 1009.7 |
| 20260505093700 | 10 | 204 | 0.0 | 0.0 | 0.00 | 0.15 | 0.15 | 99 | 1009.7 |
| 20260505093157 | 10 | 204 | 0.0 | 0.0 | 0.00 | 0.15 | 0.15 | 99 | 1009.4 |
| 20260505092654 | 10 | 204 | 0.0 | 0.0 | 0.00 | 0.15 | 0.15 | 99 | 1009.5 |
| 20260505092153 | 10 | 205 | 0.0 | 0.0 | 0.00 | 0.15 | 0.15 | 99 | 1009.3 |
| 20260505091649 | 10 | 204 | 0.0 | 0.0 | 0.00 | 0.15 | 0.15 | 99 | 1009.5 |
| 20260505091147 | 10 | 205 | 0.0 | 0.0 | 0.00 | 0.15 | 0.15 | 99 | 1009.3 |
| 20260505090644 | 11 | 205 | 0.0 | 0.0 | 0.00 | 0.15 | 0.15 | 99 | 1009.5 |
| 20260505090143 | 11 | 205 | 0.0 | 0.0 | 0.00 | 0.15 | 0.15 | 99 | 1009.3 |
| 20260505085640 | 11 | 206 | 0.0 | 0.0 | 0.00 | 0.15 | 0.15 | 99 | 1009.5 |
| 20260505085138 | 11 | 184 | 0.0 | 0.0 | 0.00 | 0.15 | 0.15 | 99 | 1009.4 |
| 20260505084635 | 11 | 206 | 0.0 | 0.0 | 0.00 | 0.15 | 0.15 | 99 | 1009.6 |
| 20260505084134 | 11 | 203 | 0.0 | 0.0 | 0.00 | 0.15 | 0.15 | 99 | 1009.5 |
| 20260505083631 | 11 | 136 | 0.0 | 0.0 | 0.00 | 0.15 | 0.15 | 99 | 1009.6 |
| 20260505083127 | 11 | 132 | 0.0 | 0.0 | 0.00 | 0.15 | 0.15 | 99 | 1009.6 |
| 20260505082623 | 11 | 106 | 0.0 | 0.0 | 0.00 | 0.15 | 0.15 | 99 | 1009.8 |
| 20260505082120 | 11 | 142 | 0.0 | 0.0 | 0.00 | 0.15 | 0.15 | 99 | 1010.0 |
| 20260505081616 | 11 | 188 | 0.0 | 0.0 | 0.00 | 0.15 | 0.15 | 99 | 1009.8 |
| 20260505081114 | 11 | 295 | 1.6 | 3.2 | 0.00 | 0.15 | 0.15 | 98 | 1010.2 |
| 20260505080610 | 11 | 68 | 0.0 | 1.6 | 0.00 | 0.15 | 0.15 | 98 | 1009.6 |
| 20260505080107 | 11 | 67 | 0.0 | 0.0 | 0.00 | 0.15 | 0.15 | 97 | 1009.8 |
| 20260505075603 | 11 | 67 | 0.0 | 0.0 | 0.79 | 0.15 | 0.15 | 96 | 1009.7 |
| 20260505075059 | 11 | 67 | 0.0 | 0.0 | 0.97 | 0.15 | 0.15 | 95 | 1009.6 |
| 20260505074556 | 12 | 316 | 3.2 | 3.2 | 0.18 | 0.03 | 0.03 | 91 | 1009.9 |
| 20260505074054 | 11 | 250 | 0.0 | 0.0 | 0.00 | 0.00 | 0.00 | 90 | 1009.8 |
| 20260505073551 | 11 | 250 | 0.0 | 0.0 | 0.00 | 0.00 | 0.00 | 90 | 1009.5 |
| 20260505073050 | 11 | 256 | 0.0 | 0.0 | 0.00 | 0.00 | 0.00 | 89 | 1009.3 |
| 20260505072550 | 11 | 251 | 0.0 | 0.0 | 0.00 | 0.00 | 0.00 | 89 | 1009.1 |
| 20260505072047 | 12 | 251 | 0.0 | 0.0 | 0.00 | 0.00 | 0.00 | 89 | 1008.8 |
| 20260505071542 | 12 | 251 | 0.0 | 0.0 | 0.00 | 0.00 | 0.00 | 89 | 1008.9 |
| 20260505071040 | 12 | 271 | 0.0 | 0.0 | 0.00 | 0.00 | 0.00 | 88 | 1009.2 |
| 20260505070537 | 12 | 272 | 1.6 | 1.6 | 0.00 | 0.00 | 0.00 | 87 | 1008.9 |
| 20260505070033 | 12 | 264 | 4.8 | 4.8 | 0.00 | 0.00 | 0.00 | 86 | 1009.2 |
| 20260505065529 | 12 | 182 | 0.0 | 0.0 | 0.00 | 0.00 | 0.00 | 83 | 1009.2 |
| 20260505065026 | 12 | 182 | 0.0 | 0.0 | 0.00 | 0.00 | 0.00 | 82 | 1009.0 |
| 20260505064523 | 12 | 182 | 0.0 | 0.0 | 0.00 | 0.00 | 0.00 | 81 | 1009.4 |
| 20260505064022 | 12 | 182 | 0.0 | 0.0 | 0.00 | 0.00 | 0.00 | 80 | 1009.5 |
| 20260505063518 | 12 | 182 | 0.0 | 0.0 | 0.00 | 0.00 | 0.00 | 79 | 1009.4 |
| 20260505063014 | 12 | 182 | 0.0 | 0.0 | 0.00 | 0.00 | 0.00 | 79 | 1009.5 |
| 20260505062511 | 12 | 182 | 0.0 | 0.0 | 0.00 | 0.00 | 0.00 | 79 | 1009.4 |
| 20260505062008 | 12 | 182 | 0.0 | 0.0 | 0.00 | 0.00 | 0.00 | 79 | 1009.3 |
| 20260505061506 | 12 | 182 | 0.0 | 0.0 | 0.00 | 0.00 | 0.00 | 78 | 1009.3 |
| 20260505061003 | 12 | 182 | 0.0 | 0.0 | 0.00 | 0.00 | 0.00 | 78 | 1009.4 |
| 20260505060500 | 13 | 182 | 0.0 | 0.0 | 0.00 | 0.00 | 0.00 | 77 | 1009.5 |
| 20260505055956 | 13 | 182 | 0.0 | 0.0 | 0.00 | 0.00 | 0.00 | 74 | 1009.5 |
| 20260505055452 | 12 | 182 | 0.0 | 0.0 | 0.00 | 0.00 | 0.00 | 75 | 1009.5 |
| 20260505054949 | 12 | 182 | 0.0 | 0.0 | 0.00 | 0.00 | 0.00 | 77 | 1009.4 |
| 20260505054447 | 12 | 182 | 0.0 | 0.0 | 0.00 | 0.00 | 0.00 | 78 | 1009.5 |
| 20260505053945 | 12 | 182 | 0.0 | 0.0 | 0.00 | 0.00 | 0.00 | 78 | 1009.5 |
| 20260505053441 | 12 | 120 | 0.0 | 0.0 | 0.00 | 0.00 | 0.00 | 78 | 1009.4 |
| 20260505052938 | 12 | 120 | 0.0 | 0.0 | 0.00 | 0.00 | 0.00 | 76 | 1009.6 |
| 20260505052435 | 12 | 167 | 0.0 | 0.0 | 0.00 | 0.00 | 0.00 | 76 | 1009.3 |
| 20260505051932 | 12 | 167 | 0.0 | 0.0 | 0.00 | 0.00 | 0.00 | 75 | 1009.4 |
| 20260505051429 | 12 | 176 | 0.0 | 0.0 | 0.00 | 0.00 | 0.00 | 76 | 1009.2 |
| 20260505050928 | 13 | 183 | 0.0 | 0.0 | 0.00 | 0.00 | 0.00 | 75 | 1009.3 |
| 20260505050426 | 13 | 184 | 1.6 | 1.6 | 0.00 | 0.00 | 0.00 | 72 | 1009.3 |
| 20260505041353 | 14 | 256 | 0.0 | 0.0 | 0.00 | 0.00 | 0.00 | 66 | 1009.1 |
| 20260505040850 | 15 | 217 | 0.0 | 0.0 | 0.00 | 0.00 | 0.00 | 65 | 1009.1 |
| 20260505040348 | 15 | 194 | 0.0 | 1.6 | 0.00 | 0.00 | 0.00 | 64 | 1009.2 |
| 20260505035844 | 15 | 206 | 1.6 | 3.2 | 0.00 | 0.00 | 0.00 | 62 | 1009.2 |
| 20260505035340 | 15 | 132 | 1.6 | 1.6 | 0.00 | 0.00 | 0.00 | 63 | 1009.1 |
| 20260505034838 | 15 | 160 | 0.0 | 1.6 | 0.00 | 0.00 | 0.00 | 62 | 1009.4 |
| 20260505034334 | 15 | 183 | 1.6 | 1.6 | 0.00 | 0.00 | 0.00 | 62 | 1009.1 |
| 20260505033831 | 15 | 134 | 0.0 | 0.0 | 0.00 | 0.00 | 0.00 | 64 | 1009.1 |
| 20260505033328 | 15 | 212 | 0.0 | 0.0 | 0.00 | 0.00 | 0.00 | 64 | 1009.0 |
| 20260505032826 | 15 | 212 | 1.6 | 1.6 | 0.00 | 0.00 | 0.00 | 63 | 1009.0 |
| 20260505032322 | 15 | 211 | 0.0 | 0.0 | 0.00 | 0.00 | 0.00 | 61 | 1008.9 |
| 20260505031820 | 16 | 174 | 0.0 | 0.0 | 0.00 | 0.00 | 0.00 | 59 | 1009.2 |
| 20260505031316 | 16 | 164 | 3.2 | 3.2 | 0.00 | 0.00 | 0.00 | 57 | 1009.0 |
| 20260505030813 | 16 | 350 | 0.0 | 0.0 | 0.00 | 0.00 | 0.00 | 59 | 1009.1 |
| 20260505030310 | 16 | 287 | 3.2 | 3.2 | 0.00 | 0.00 | 0.00 | 58 | 1009.2 |
| 20260505025805 | 16 | 272 | 3.2 | 3.2 | 0.00 | 0.00 | 0.00 | 55 | 1009.0 |
| 20260505025304 | 16 | 260 | 3.2 | 4.8 | 0.00 | 0.00 | 0.00 | 56 | 1008.7 |
| 20260505024801 | 16 | 94 | 3.2 | 4.8 | 0.00 | 0.00 | 0.00 | 55 | 1009.0 |
| 20260505024258 | 17 | 323 | 4.8 | 4.8 | 0.00 | 0.00 | 0.00 | 54 | 1009.1 |
| 20260505023755 | 16 | 303 | 1.6 | 1.6 | 0.00 | 0.00 | 0.00 | 54 | 1009.2 |
| 20260505023252 | 16 | 239 | 1.6 | 1.6 | 0.00 | 0.00 | 0.00 | 54 | 1009.3 |
| 20260505022750 | 16 | 226 | 1.6 | 3.2 | 0.00 | 0.00 | 0.00 | 54 | 1009.4 |
| 20260505022246 | 16 | 289 | 1.6 | 3.2 | 0.00 | 0.00 | 0.00 | 55 | 1009.3 |
| 20260505021743 | 16 | 68 | 0.0 | 0.0 | 0.00 | 0.00 | 0.00 | 55 | 1009.5 |
| 20260505021240 | 16 | 207 | 0.0 | 1.6 | 0.00 | 0.00 | 0.00 | 55 | 1009.4 |
| 20260505020736 | 17 | 284 | 0.0 | 1.6 | 0.00 | 0.00 | 0.00 | 55 | 1009.6 |
| 20260505020231 | 17 | 191 | 0.0 | 1.6 | 0.00 | 0.00 | 0.00 | 53 | 1009.4 |
| 20260505015729 | 17 | 153 | 0.0 | 0.0 | 0.00 | 0.00 | 0.00 | 53 | 1009.6 |
| 20260505015225 | 17 | 97 | 3.2 | 3.2 | 0.00 | 0.00 | 0.00 | 54 | 1009.5 |
| 20260505014723 | 17 | 100 | 3.2 | 4.8 | 0.00 | 0.00 | 0.00 | 54 | 1009.4 |
| 20260505014220 | 17 | 186 | 0.0 | 1.6 | 0.00 | 0.00 | 0.00 | 54 | 1009.4 |
| 20260505013717 | 17 | 157 | 1.6 | 3.2 | 0.00 | 0.00 | 0.00 | 54 | 1009.6 |
| 20260505013214 | 17 | 132 | 0.0 | 0.0 | 0.00 | 0.00 | 0.00 | 55 | 1009.4 |
| 20260505012712 | 17 | 131 | 0.0 | 0.0 | 0.00 | 0.00 | 0.00 | 55 | 1009.3 |
| 20260505012209 | 17 | 132 | 0.0 | 0.0 | 0.00 | 0.00 | 0.00 | 53 | 1009.4 |
| 20260505011704 | 17 | 263 | 1.6 | 4.8 | 0.00 | 0.00 | 0.00 | 53 | 1009.5 |
| 20260505011202 | 17 | 172 | 0.0 | 0.0 | 0.00 | 0.00 | 0.00 | 52 | 1009.2 |
| 20260505010657 | 17 | 105 | 0.0 | 0.0 | 0.00 | 0.00 | 0.00 | 54 | 1009.1 |
| 20260505010154 | 17 | 91 | 0.0 | 1.6 | 0.00 | 0.00 | 0.00 | 54 | 1009.1 |
| 20260505005650 | 17 | 192 | 3.2 | 3.2 | 0.00 | 0.00 | 0.00 | 53 | 1008.9 |
| 20260505005148 | 17 | 249 | 1.6 | 4.8 | 0.00 | 0.00 | 0.00 | 55 | 1008.8 |
| 20260505004644 | 17 | 137 | 0.0 | 0.0 | 0.00 | 0.00 | 0.00 | 53 | 1008.7 |
| 20260505004141 | 17 | 250 | 0.0 | 0.0 | 0.00 | 0.00 | 0.00 | 52 | 1008.9 |
| 20260505003638 | 18 | 125 | 1.6 | 3.2 | 0.00 | 0.00 | 0.00 | 52 | 1008.8 |
| 20260505003136 | 18 | 98 | 1.6 | 3.2 | 0.00 | 0.00 | 0.00 | 52 | 1008.8 |
| 20260505002632 | 18 | 222 | 1.6 | 1.6 | 0.00 | 0.00 | 0.00 | 52 | 1008.8 |
| 20260505002130 | 18 | 328 | 1.6 | 1.6 | 0.00 | 0.00 | 0.00 | 52 | 1008.8 |
| 20260505001626 | 18 | 354 | 1.6 | 1.6 | 0.00 | 0.00 | 0.00 | 50 | 1008.4 |
| 20260505001124 | 18 | 164 | 0.0 | 1.6 | 0.00 | 0.00 | 0.00 | 49 | 1008.5 |
| 20260505000621 | 18 | 165 | 0.0 | 1.6 | 0.00 | 0.00 | 0.00 | 49 | 1008.4 |
| 20260505000119 | 19 | 150 | 1.6 | 1.6 | 0.00 | 0.00 | 0.00 | 48 | 1008.3 |
| 20260504235615 | 19 | 311 | 1.6 | 3.2 | 0.00 | 0.00 | 0.00 | 48 | 1008.4 |
| 20260504235112 | 19 | 73 | 0.0 | 0.0 | 0.00 | 0.00 | 0.00 | 47 | 1008.8 |
| 20260504234609 | 20 | 139 | 6.4 | 8.0 | 0.00 | 0.00 | 0.00 | 47 | 1008.5 |
| 20260504234106 | 20 | 137 | 4.8 | 4.8 | 0.00 | 0.00 | 0.00 | 47 | 1008.3 |
| 20260504233601 | 20 | 212 | 1.6 | 3.2 | 0.00 | 0.00 | 0.00 | 46 | 1008.2 |
| 20260504233058 | 20 | 197 | 0.0 | 0.0 | 0.00 | 0.00 | 0.00 | 46 | 1008.4 |
| 20260504232555 | 20 | 237 | 1.6 | 3.2 | 0.00 | 0.00 | 0.00 | 46 | 1008.1 |
| 20260504232053 | 20 | 18 | 3.2 | 3.2 | 0.00 | 0.00 | 0.00 | 45 | 1007.9 |
| 20260504231549 | 20 | 155 | 3.2 | 4.8 | 0.00 | 0.00 | 0.00 | 44 | 1007.9 |
| 20260504231045 | 21 | 114 | 1.6 | 1.6 | 0.00 | 0.00 | 0.00 | 45 | 1008.1 |
| 20260504230542 | 21 | 272 | 4.8 | 8.0 | 0.00 | 0.00 | 0.00 | 43 | 1008.1 |
| 20260504230041 | 21 | 215 | 3.2 | 3.2 | 0.00 | 0.00 | 0.00 | 42 | 1007.9 |
| 20260504225538 | 21 | 351 | 6.4 | 8.0 | 0.00 | 0.00 | 0.00 | 42 | 1007.8 |
| 20260504225035 | 21 | 319 | 3.2 | 4.8 | 0.00 | 0.00 | 0.00 | 43 | 1007.9 |
| 20260504224531 | 21 | 215 | 0.0 | 0.0 | 0.00 | 0.00 | 0.00 | 42 | 1007.9 |
| 20260504224028 | 22 | 237 | 4.8 | 8.0 | 0.00 | 0.00 | 0.00 | 41 | 1007.9 |
| 20260504223525 | 22 | 239 | 0.0 | 1.6 | 0.00 | 0.00 | 0.00 | 41 | 1007.8 |
| 20260504223021 | 22 | 49 | 3.2 | 3.2 | 0.00 | 0.00 | 0.00 | 40 | 1007.7 |
| 20260504222518 | 22 | 296 | 4.8 | 8.0 | 0.00 | 0.00 | 0.00 | 41 | 1007.7 |
| 20260504222016 | 22 | 148 | 0.0 | 1.6 | 0.00 | 0.00 | 0.00 | 42 | 1007.7 |
| 20260504221513 | 22 | 336 | 6.4 | 8.0 | 0.00 | 0.00 | 0.00 | 40 | 1008.0 |
| 20260504221009 | 22 | 49 | 4.8 | 4.8 | 0.00 | 0.00 | 0.00 | 40 | 1008.1 |
| 20260504220506 | 23 | 181 | 0.0 | 1.6 | 0.00 | 0.00 | 0.00 | 39 | 1008.0 |
| 20260504220003 | 22 | 221 | 4.8 | 8.0 | 0.00 | 0.00 | 0.00 | 40 | 1008.2 |
| 20260504215459 | 22 | 346 | 3.2 | 3.2 | 0.00 | 0.00 | 0.00 | 41 | 1008.1 |
| 20260504214956 | 23 | 197 | 3.2 | 3.2 | 0.00 | 0.00 | 0.00 | 40 | 1008.1 |
| 20260504214452 | 22 | 38 | 1.6 | 1.6 | 0.00 | 0.00 | 0.00 | 41 | 1008.0 |
| 20260504213949 | 22 | 221 | 1.6 | 3.2 | 0.00 | 0.00 | 0.00 | 40 | 1008.0 |
| 20260504213445 | 22 | 107 | 3.2 | 3.2 | 0.00 | 0.00 | 0.00 | 40 | 1008.2 |
| 20260504212943 | 22 | 280 | 1.6 | 3.2 | 0.00 | 0.00 | 0.00 | 40 | 1008.1 |
| 20260504212438 | 23 | 158 | 3.2 | 3.2 | 0.00 | 0.00 | 0.00 | 40 | 1008.1 |